Chino, CA

9:08 AM PDT on April 28, 2017 (GMT -0700)
Chino

Weather History for KCNO - December, 2012

Change the Weather History Date:

Friday, December 7, 2012

  Actual Average Record
Temperature  
Mean Temperature 60 °F -  
Max Temperature 75 °F 65 °F 84 °F (2006)
Min Temperature 46 °F 37 °F 28 °F (2011)
Degree Days  
Heating Degree Days 4    
Growing Degree Days 10 (Base 50)    
Moisture  
Dew Point 49 °F    
Average Humidity 89    
Maximum Humidity 100    
Minimum Humidity 41    
Precipitation  
Precipitation 0.00 in - - ()
Sea Level Pressure  
Sea Level Pressure 29.95 in    
Wind  
Wind Speed 1 mph (NW)    
Max Wind Speed 9 mph    
Max Gust Speed -    
Visibility 2 miles    
Events Fog    
Averages and records for this station are not official NWS values.
T = Trace of Precipitation, MM = Missing Value Source: NWS Daily Summary

Daily Weather History Graph

Daily Weather History Graph

Search for Another Location

Airport or City:

Trip Planner

Search our weather history database for the weather conditions in past years. The results will help you decide how hot, cold, wet, or windy it might be!

Date:

Astronomy

Dec. 07, 2012 Rise Set
Actual Time 6:43 AM PST 4:41 PM PST
Civil Twilight 6:15 AM PST 5:08 PM PST
Nautical Twilight 5:44 AM PST 5:40 PM PST
Astronomical Twilight 5:14 AM PST 6:10 PM PST
Moon 12:22 AM PST (12/7) 12:27 PM PST (12/7)
Length of Visible Light 10h 53m
Length of Day
9h 58m
Last Quarter, 37% of the Moon is Illuminated
Dec 7
Last Quarter
Dec 13
New
Dec 19
First Quarter
Dec 28
Full
Jan 4
Last Quarter

Hourly Weather History & Observations

Time (PST) Temp. Windchill Dew Point Humidity Pressure Visibility Wind Dir Wind Speed Gust Speed Precip Events Conditions
12:15 AM 50.0 °F - 48.2 °F 94% 29.95 in 0.2 mi Calm Calm - N/A Fog Fog
12:29 AM 51.8 °F - 51.8 °F 100% 29.95 in 0.2 mi Calm Calm - N/A Fog Fog
12:53 AM 52.0 °F - 51.1 °F 97% 29.94 in 0.2 mi Calm Calm - N/A Fog Fog
1:21 AM 50.0 °F - 48.2 °F 94% 29.95 in 0.2 mi ENE 3.5 mph - N/A Fog Fog
1:32 AM 50.0 °F - 48.2 °F 94% 29.95 in 1.0 mi Calm Calm - N/A   Overcast
1:37 AM 48.2 °F - 48.2 °F 100% 29.95 in 0.5 mi Calm Calm - N/A Fog Fog
1:48 AM 48.2 °F - 48.2 °F 100% 29.95 in 0.2 mi Calm Calm - N/A Fog Fog
1:53 AM 48.0 °F - 48.0 °F 100% 29.94 in 0.2 mi Calm Calm - N/A Fog Fog
2:53 AM 46.9 °F - 46.0 °F 97% 29.93 in 0.2 mi Calm Calm - N/A Fog Fog
3:15 AM 46.4 °F - 46.4 °F 100% 29.93 in 0.2 mi Calm Calm - N/A Fog Fog
3:40 AM 46.4 °F 44.3 °F 46.4 °F 100% 29.93 in 0.2 mi NW 4.6 mph - N/A Fog Fog
3:53 AM 48.0 °F - 46.9 °F 96% 29.92 in 0.2 mi Calm Calm - N/A Fog Fog
4:53 AM 48.0 °F - 48.0 °F 100% 29.93 in 0.2 mi Calm Calm - N/A Fog Fog
5:53 AM 48.9 °F - 48.0 °F 97% 29.95 in 0.2 mi NE 4.6 mph - N/A Fog Fog
6:53 AM 48.0 °F - 46.9 °F 96% 29.96 in 0.0 mi ESE 3.5 mph - N/A Fog Fog
7:53 AM 46.9 °F - 46.9 °F 100% 29.98 in 0.2 mi Calm Calm - N/A Fog Fog
8:53 AM 48.9 °F - 48.9 °F 100% 29.99 in 0.8 mi Calm Calm - N/A   Clear
9:00 AM 50.0 °F - 50.0 °F 100% 29.99 in 1.0 mi Calm Calm - N/A   Mostly Cloudy
9:14 AM 51.8 °F - 51.8 °F 100% 29.99 in 1.2 mi Calm Calm - N/A   Clear
9:53 AM 57.0 °F - 53.1 °F 87% 29.98 in 3.0 mi Calm Calm - N/A   Clear
10:53 AM 64.0 °F - 54.0 °F 70% 29.97 in 5.0 mi Variable 3.5 mph - N/A   Haze
11:53 AM 70.0 °F - 51.1 °F 51% 29.94 in 5.0 mi Calm Calm - N/A   Haze
12:53 PM 73.0 °F - 48.0 °F 41% 29.92 in 8.0 mi West 5.8 mph - N/A   Partly Cloudy
1:53 PM 75.0 °F - 50.0 °F 41% 29.91 in 8.0 mi West 9.2 mph - N/A   Partly Cloudy
2:53 PM 72.0 °F - 54.0 °F 53% 29.91 in 7.0 mi West 8.1 mph - N/A   Partly Cloudy
3:53 PM 70.0 °F - 54.0 °F 57% 29.91 in 5.0 mi West 8.1 mph - N/A   Haze
5:53 PM 60.1 °F - 53.1 °F 78% 29.92 in 4.0 mi SSE 3.5 mph - N/A   Haze
6:53 PM 57.0 °F - 53.1 °F 87% 29.94 in 3.0 mi Calm Calm - N/A   Clear
7:53 PM 54.0 °F - 52.0 °F 93% 29.95 in 3.0 mi Calm Calm - N/A   Clear
8:53 PM 51.1 °F - 50.0 °F 96% 29.97 in 3.0 mi Calm Calm - N/A   Clear
9:00 PM 51.8 °F - 51.8 °F 100% 29.97 in 2.0 mi Calm Calm - N/A   Clear
9:09 PM 51.8 °F - 48.2 °F 88% 29.96 in 1.8 mi Calm Calm - N/A   Clear
9:48 PM 51.8 °F - 50.0 °F 94% 29.96 in 2.0 mi Calm Calm - N/A   Clear
9:53 PM 51.1 °F - 50.0 °F 96% 29.95 in 2.0 mi North 3.5 mph - N/A   Clear
10:07 PM 50.0 °F - 46.4 °F 87% 29.95 in 1.5 mi Calm Calm - N/A   Clear
10:18 PM 51.8 °F - 48.2 °F 88% 29.95 in 2.0 mi Calm Calm - N/A   Clear
10:26 PM 51.8 °F - 48.2 °F 88% 29.96 in 1.8 mi Calm Calm - N/A   Clear
10:39 PM 50.0 °F - 48.2 °F 94% 29.96 in 2.0 mi Calm Calm - N/A   Clear
10:46 PM 50.0 °F - 48.2 °F 94% 29.95 in 1.8 mi Calm Calm - N/A   Clear
10:53 PM 51.1 °F - 48.0 °F 89% 29.95 in 1.2 mi Calm Calm - N/A   Clear
11:41 PM 48.2 °F - 46.4 °F 93% 29.95 in 0.5 mi Calm Calm - N/A Fog Fog
11:53 PM 48.9 °F - 48.0 °F 97% 29.94 in 0.5 mi Calm Calm - N/A Fog Fog